Temp: 13.4°C   Baro: 1022.4mb
  Wind: 2.0mph   Dir: NE (50°)
  Rain: 0.0mm (0.0mm/hr)
  Sun: 0W/m2  Humidity: 78%

Historic data

Bath Spa Weather Station Historical Data
Daily Summary for May 22, 2024 Units:  Metric    English   Both
Daily Weekly Monthly Yearly Custom
  High: Low: Average:
Temperature: 14.9 °C 11.8 °C 13 °C
Dew Point: 13.2 °C 10.8 °C 11.6 °C
Humidity: 95% 83% 91%
Wind Speed: 17.1km/h 1.4km/h 8.7km/h
Wind Gust: 30.6km/h - -
Wind- - West
Pressure: 1011.4 hPa 1008 hPa -
Precipitation: 7.62 mm    
Historical Graphs
 
 
Tabular Data for May 22, 2024
Time Temperature Dew Point Pressure Wind Wind Speed Wind Gust Humidity Rainfall Rate (Hourly) solar
00:09 12.9 °C 11.6 °C 1009.7 hPa West 3.4 km/h 9.7 km/h 92% 1.52 mm 0 W/m2
00:14 12.8 °C 11.6 °C 1009.7 hPa West 5.5 km/h 9.7 km/h 92% 1.52 mm 0 W/m2
00:19 12.8 °C 11.5 °C 1009.4 hPa West 5.6 km/h 9.7 km/h 92% 1.52 mm 0 W/m2
00:24 12.8 °C 11.5 °C 1009.4 hPa WSW 4.2 km/h 9.7 km/h 92% 1.52 mm 0 W/m2
00:29 12.8 °C 11.5 °C 1009.4 hPa WSW 5.1 km/h 8 km/h 92% 1.52 mm 0 W/m2
00:34 12.7 °C 11.4 °C 1009.4 hPa WSW 5.1 km/h 9.7 km/h 92% 1.52 mm 0 W/m2
00:39 12.7 °C 11.4 °C 1009.4 hPa WSW 4.5 km/h 8 km/h 92% 1.52 mm 0 W/m2
00:44 12.7 °C 11.4 °C 1009.4 hPa WSW 3.4 km/h 8 km/h 92% 1.52 mm 0 W/m2
00:49 12.7 °C 11.4 °C 1009.4 hPa West 3.4 km/h 4.8 km/h 92% 1.52 mm 0 W/m2
00:54 12.6 °C 11.3 °C 1009 hPa West 3.4 km/h 8 km/h 92% 1.52 mm 0 W/m2
00:59 12.4 °C 11.2 °C 1009 hPa WSW 4.2 km/h 6.4 km/h 92% 1.52 mm 0 W/m2
01:04 12.4 °C 11.1 °C 1009 hPa WSW 3.2 km/h 6.4 km/h 92% 1.52 mm 0 W/m2
01:09 12.3 °C 11.2 °C 1009 hPa WSW 4.5 km/h 8 km/h 93% 1.52 mm 0 W/m2
01:14 12.2 °C 11.1 °C 1009 hPa WSW 3.4 km/h 8 km/h 92.8% 1.52 mm 0 W/m2
01:19 12.2 °C 11.1 °C 1009 hPa WSW 2.6 km/h 6.4 km/h 93% 1.27 mm 0 W/m2
01:24 12.1 °C 11 °C 1009 hPa WSW 1.4 km/h 4.8 km/h 93% 1.02 mm 0 W/m2
01:29 12.2 °C 11.1 °C 1009 hPa WSW 3.1 km/h 8 km/h 93% 1.27 mm 0 W/m2
01:34 12.2 °C 11.1 °C 1009 hPa West 5.5 km/h 9.7 km/h 93% 1.02 mm 0 W/m2
01:39 12.2 °C 11.1 °C 1009 hPa West 4.2 km/h 9.7 km/h 93% 0.76 mm 0 W/m2
01:44 12.2 °C 11.1 °C 1008.7 hPa West 4.7 km/h 14.5 km/h 93% 0.76 mm 0 W/m2
01:49 12.3 °C 11.2 °C 1008.7 hPa West 8.5 km/h 16.1 km/h 93% 0.76 mm 0 W/m2
01:54 12.3 °C 11.2 °C 1008.7 hPa WNW 7.2 km/h 12.9 km/h 93% 0.51 mm 0 W/m2
01:59 12.3 °C 11.2 °C 1008.7 hPa West 7.4 km/h 17.7 km/h 93% 0.51 mm 0 W/m2
02:04 12.3 °C 11.2 °C 1008.7 hPa West 9.7 km/h 14.5 km/h 93% 0.51 mm 0 W/m2
02:09 12.3 °C 11.2 °C 1008.7 hPa West 9.2 km/h 14.5 km/h 93% 0.51 mm 0 W/m2
02:14 12.3 °C 11.2 °C 1008.7 hPa WNW 7.9 km/h 17.7 km/h 93% 0.51 mm 0 W/m2
02:19 12.3 °C 11.2 °C 1008.4 hPa WNW 7.9 km/h 14.5 km/h 93% 0.51 mm 0 W/m2
02:24 12.3 °C 11.2 °C 1008.4 hPa West 7.4 km/h 11.3 km/h 93% 0.51 mm 0 W/m2
02:29 12.3 °C 11.2 °C 1008.4 hPa West 7.2 km/h 16.1 km/h 93% 0.51 mm 0 W/m2
02:34 12.2 °C 11.1 °C 1008.4 hPa WNW 8.4 km/h 17.7 km/h 93% 0.51 mm 0 W/m2
02:39 12.2 °C 11.1 °C 1008.4 hPa West 10.9 km/h 17.7 km/h 93% 0.51 mm 0 W/m2
02:44 12.2 °C 11.2 °C 1008.4 hPa West 6.8 km/h 12.9 km/h 93.2% 0.51 mm 0 W/m2
02:49 12.2 °C 11.1 °C 1008.4 hPa West 6.6 km/h 14.5 km/h 93% 0.51 mm 0 W/m2
02:54 12.2 °C 11.1 °C 1008.4 hPa West 7.4 km/h 14.5 km/h 93.2% 0.51 mm 0 W/m2
02:59 12.1 °C 11.2 °C 1008.4 hPa West 7.1 km/h 12.9 km/h 94% 0.51 mm 0 W/m2
03:04 12.1 °C 11.2 °C 1008.4 hPa West 8.7 km/h 14.5 km/h 94% 0.25 mm 0 W/m2
03:09 12.1 °C 11.2 °C 1008.4 hPa West 6.4 km/h 9.7 km/h 94% 0.25 mm 0 W/m2
03:14 12.1 °C 11.2 °C 1008.4 hPa West 5 km/h 11.3 km/h 94% 0.25 mm 0 W/m2
03:19 12.1 °C 11.2 °C 1008.4 hPa West 4.2 km/h 9.7 km/h 94% 0.25 mm 0 W/m2
03:24 12.1 °C 11.2 °C 1008.4 hPa West 7.2 km/h 11.3 km/h 94% 0.51 mm 0 W/m2
03:29 12 °C 11.1 °C 1008.4 hPa West 4.3 km/h 12.9 km/h 94% 0.25 mm 0 W/m2
03:34 12 °C 11.1 °C 1008.4 hPa West 5.5 km/h 11.3 km/h 94% 0.25 mm 0 W/m2
03:39 12 °C 11.1 °C 1008.4 hPa West 7.1 km/h 12.9 km/h 94% 0.25 mm 0 W/m2
03:44 12 °C 11.1 °C 1008.4 hPa West 6.8 km/h 9.7 km/h 94% 0.25 mm 0 W/m2
03:49 12 °C 11.1 °C 1008.4 hPa West 5.3 km/h 12.9 km/h 94% 0.51 mm 0 W/m2
03:54 11.9 °C 11.1 °C 1008.4 hPa West 5.8 km/h 11.3 km/h 94% 0.51 mm 0 W/m2
03:59 11.9 °C 11.1 °C 1008.4 hPa West 6.3 km/h 12.9 km/h 94% 0.51 mm 0 W/m2
04:04 11.9 °C 11 °C 1008.4 hPa West 5.5 km/h 11.3 km/h 94% 0.76 mm 0 W/m2
04:09 11.9 °C 11 °C 1008.4 hPa West 5.6 km/h 9.7 km/h 94% 1.02 mm 0 W/m2
04:14 11.9 °C 11 °C 1008.4 hPa West 6.3 km/h 12.9 km/h 94% 1.52 mm 0 W/m2
04:19 11.9 °C 11 °C 1008.4 hPa WNW 10.1 km/h 12.9 km/h 94% 1.78 mm 0 W/m2
04:24 11.9 °C 11 °C 1008 hPa West 9.2 km/h 16.1 km/h 94% 1.78 mm 0 W/m2
04:29 11.9 °C 11 °C 1008 hPa West 10.1 km/h 16.1 km/h 94% 1.78 mm 0 W/m2
04:34 11.9 °C 11 °C 1008 hPa West 8.7 km/h 12.9 km/h 94% 1.78 mm 0 W/m2
04:39 11.9 °C 11 °C 1008 hPa WNW 5.8 km/h 11.3 km/h 94% 1.78 mm 0 W/m2
04:44 11.9 °C 11 °C 1008 hPa West 6.3 km/h 12.9 km/h 94% 2.03 mm 0 W/m2
04:49 11.9 °C 11 °C 1008 hPa West 6.6 km/h 11.3 km/h 94% 2.03 mm 0 W/m2
04:54 11.9 °C 11 °C 1008 hPa WSW 7.6 km/h 12.9 km/h 94% 1.78 mm 0 W/m2
04:59 11.8 °C 10.9 °C 1008 hPa West 8.7 km/h 16.1 km/h 94% 1.78 mm 0 W/m2
05:04 11.8 °C 10.9 °C 1008 hPa West 7.2 km/h 12.9 km/h 94% 1.78 mm 0 W/m2
05:09 11.8 °C 10.9 °C 1008 hPa West 5.8 km/h 12.9 km/h 94% 1.52 mm 0 W/m2
05:14 11.8 °C 10.9 °C 1008 hPa West 5.6 km/h 11.3 km/h 94% 1.52 mm 0 W/m2
05:19 11.8 °C 10.9 °C 1008 hPa West 9 km/h 14.5 km/h 94% 1.02 mm 0 W/m2
05:24 11.8 °C 10.9 °C 1008 hPa West 6 km/h 14.5 km/h 94% 0.76 mm 0 W/m2
05:29 11.8 °C 10.9 °C 1008 hPa West 8 km/h 11.3 km/h 94% 0.51 mm 0 W/m2
05:34 11.8 °C 10.9 °C 1008 hPa West 6.1 km/h 11.3 km/h 94% 0.51 mm 0 W/m2
05:39 11.8 °C 10.9 °C 1008 hPa West 5.5 km/h 9.7 km/h 94% 0.51 mm 0 W/m2
05:44 11.8 °C 10.9 °C 1008 hPa West 6 km/h 11.3 km/h 94% 0.51 mm 0 W/m2
05:49 11.8 °C 10.9 °C 1008 hPa WNW 4.5 km/h 9.7 km/h 94% 0.51 mm 5 W/m2
05:54 11.8 °C 10.9 °C 1008 hPa WNW 4.5 km/h 8 km/h 94% 0.51 mm 5 W/m2
05:59 11.8 °C 10.9 °C 1008 hPa West 5.8 km/h 11.3 km/h 94% 0.51 mm 5 W/m2
06:04 11.8 °C 10.9 °C 1008 hPa West 8.5 km/h 14.5 km/h 94% 0.51 mm 12 W/m2
06:09 11.8 °C 10.9 °C 1008 hPa West 6.8 km/h 14.5 km/h 94% 0.51 mm 16 W/m2
06:14 11.8 °C 10.9 °C 1008 hPa WNW 4.8 km/h 14.5 km/h 94% 0.51 mm 19 W/m2
06:19 11.9 °C 11 °C 1008 hPa West 7.7 km/h 11.3 km/h 94% 0.25 mm 23 W/m2
06:24 11.8 °C 10.9 °C 1008 hPa West 7.7 km/h 9.7 km/h 94% 0.25 mm 25 W/m2
06:29 11.9 °C 11 °C 1008 hPa West 7.1 km/h 12.9 km/h 94.2% 0.25 mm 28 W/m2
06:34 11.9 °C 11.1 °C 1008 hPa West 6 km/h 12.9 km/h 94.4% 0.25 mm 35 W/m2
06:39 11.9 °C 11.1 °C 1008 hPa West 4.8 km/h 12.9 km/h 94.4% 0.25 mm 42 W/m2
06:44 11.9 °C 11.1 °C 1008 hPa West 4 km/h 8 km/h 94.4% 0.25 mm 51 W/m2
06:49 11.9 °C 11 °C 1008 hPa West 7.7 km/h 14.5 km/h 94.2% 0.25 mm 63 W/m2
06:54 11.9 °C 11 °C 1008 hPa West 6.3 km/h 14.5 km/h 94% 0 mm 65 W/m2
06:59 12 °C 11.1 °C 1008 hPa West 7.1 km/h 12.9 km/h 94% 0 mm 62 W/m2
07:04 12 °C 11.2 °C 1008 hPa West 6.6 km/h 12.9 km/h 94.2% 0 mm 86 W/m2
07:09 12.1 °C 11.2 °C 1008 hPa West 4.8 km/h 12.9 km/h 94.3% 0 mm 93 W/m2
07:14 12.1 °C 11.2 °C 1008 hPa WNW 7.1 km/h 12.9 km/h 94.4% 0 mm 98 W/m2
07:19 12.2 °C 11.4 °C 1008 hPa West 4.8 km/h 12.9 km/h 95% 0 mm 104 W/m2
07:24 12.2 °C 11.4 °C 1008 hPa West 5.5 km/h 11.3 km/h 95% 0 mm 104 W/m2
07:29 12.2 °C 11.4 °C 1008 hPa West 7.6 km/h 14.5 km/h 95% 0 mm 102 W/m2
07:34 12.3 °C 11.4 °C 1008 hPa West 6.6 km/h 11.3 km/h 94.8% 0 mm 102 W/m2
07:39 12.3 °C 11.4 °C 1008 hPa West 6.3 km/h 11.3 km/h 94% 0 mm 74 W/m2
07:44 12.3 °C 11.4 °C 1008 hPa West 2.6 km/h 8 km/h 94% 0 mm 46 W/m2
07:49 12.4 °C 11.5 °C 1008 hPa West 3.4 km/h 6.4 km/h 94% 0 mm 54 W/m2
07:54 12.4 °C 11.5 °C 1008 hPa West 5.3 km/h 9.7 km/h 94.2% 0 mm 67 W/m2
07:59 12.4 °C 11.5 °C 1008 hPa WSW 6 km/h 9.7 km/h 94% 0 mm 65 W/m2
08:04 12.5 °C 11.7 °C 1008 hPa West 5.5 km/h 9.7 km/h 94.8% 0 mm 74 W/m2
08:09 12.6 °C 11.8 °C 1008 hPa West 3.5 km/h 8 km/h 95% 0 mm 69 W/m2
08:14 12.7 °C 11.8 °C 1008 hPa West 5.1 km/h 8 km/h 94.4% 0 mm 97 W/m2
08:19 12.7 °C 11.8 °C 1008 hPa WNW 7.7 km/h 12.9 km/h 94% 0 mm 123 W/m2
08:24 12.8 °C 11.9 °C 1008 hPa WNW 7.7 km/h 12.9 km/h 94% 0 mm 153 W/m2
08:29 12.8 °C 11.9 °C 1008 hPa WNW 9.3 km/h 17.7 km/h 94% 0 mm 171 W/m2
08:34 12.9 °C 12.1 °C 1008 hPa West 5.1 km/h 11.3 km/h 95% 0 mm 178 W/m2
08:39 13 °C 12.2 °C 1008 hPa WNW 8.4 km/h 16.1 km/h 95% 0 mm 174 W/m2
08:44 12.9 °C 12.1 °C 1008 hPa West 7.6 km/h 14.5 km/h 94.2% 0 mm 160 W/m2
08:49 13 °C 12.1 °C 1008 hPa West 9.7 km/h 16.1 km/h 94% 0 mm 178 W/m2
08:54 13 °C 12.1 °C 1008 hPa WNW 10.3 km/h 17.7 km/h 94% 0 mm 178 W/m2
08:59 13 °C 12.1 °C 1008.4 hPa West 6.6 km/h 16.1 km/h 94% 0 mm 174 W/m2
09:04 13.1 °C 12.2 °C 1008.4 hPa WNW 6.4 km/h 11.3 km/h 94% 0 mm 160 W/m2
09:09 13.1 °C 12.2 °C 1008.4 hPa West 7.7 km/h 16.1 km/h 94% 0.25 mm 158 W/m2
09:14 13.1 °C 12.2 °C 1008.4 hPa WNW 8.2 km/h 17.7 km/h 94% 0.25 mm 163 W/m2
09:19 13 °C 12.1 °C 1008.4 hPa WNW 10.6 km/h 19.3 km/h 94% 0.25 mm 172 W/m2
09:24 13 °C 12.1 °C 1008.4 hPa West 10.5 km/h 16.1 km/h 94% 0.25 mm 156 W/m2
09:29 13.1 °C 12.2 °C 1008.4 hPa West 8.2 km/h 16.1 km/h 94% 0.25 mm 151 W/m2
09:34 13.1 °C 12.2 °C 1008.4 hPa WNW 10.6 km/h 24.1 km/h 94% 0.25 mm 171 W/m2
09:39 13 °C 12.1 °C 1008.4 hPa West 10.9 km/h 17.7 km/h 94% 0.25 mm 178 W/m2
09:44 13 °C 12.1 °C 1008.4 hPa West 10 km/h 17.7 km/h 94% 0.25 mm 160 W/m2
09:49 12.9 °C 11.9 °C 1008.4 hPa West 9.7 km/h 20.9 km/h 93.2% 0.51 mm 160 W/m2
09:54 12.9 °C 11.9 °C 1008.4 hPa West 10.9 km/h 17.7 km/h 93.6% 0.51 mm 179 W/m2
09:59 12.9 °C 11.8 °C 1008.4 hPa West 6 km/h 14.5 km/h 93.2% 0.51 mm 178 W/m2
10:04 13 °C 11.9 °C 1008.4 hPa West 7.7 km/h 16.1 km/h 93% 0.51 mm 181 W/m2
10:09 12.8 °C 11.7 °C 1008.4 hPa West 10.6 km/h 19.3 km/h 93% 0.51 mm 186 W/m2
10:14 12.8 °C 11.7 °C 1008.4 hPa West 7.4 km/h 14.5 km/h 93% 0.51 mm 179 W/m2
10:19 12.8 °C 11.7 °C 1008.4 hPa West 6.9 km/h 14.5 km/h 93% 0.51 mm 178 W/m2
10:24 12.9 °C 11.8 °C 1008.4 hPa WSW 7.1 km/h 11.3 km/h 93% 0.51 mm 186 W/m2
10:29 12.9 °C 11.8 °C 1008.4 hPa West 11.9 km/h 17.7 km/h 93% 0.76 mm 192 W/m2
10:34 12.7 °C 11.6 °C 1008.4 hPa West 9.7 km/h 17.7 km/h 93% 0.76 mm 214 W/m2
10:39 12.7 °C 11.7 °C 1008.4 hPa West 7.9 km/h 14.5 km/h 93% 0.76 mm 216 W/m2
10:44 12.7 °C 11.7 °C 1008.4 hPa WSW 9.3 km/h 14.5 km/h 93% 0.76 mm 214 W/m2
10:49 12.8 °C 11.7 °C 1008.4 hPa West 9.7 km/h 17.7 km/h 93% 0.76 mm 197 W/m2
10:54 12.8 °C 11.7 °C 1008.4 hPa West 8.7 km/h 17.7 km/h 93% 0.51 mm 199 W/m2
10:59 12.9 °C 11.8 °C 1008.4 hPa West 9 km/h 17.7 km/h 93% 0.76 mm 204 W/m2
11:04 12.9 °C 11.8 °C 1008.4 hPa West 14.2 km/h 20.9 km/h 93% 0.76 mm 190 W/m2
11:09 12.9 °C 11.8 °C 1008.4 hPa WSW 9 km/h 16.1 km/h 93% 0.51 mm 151 W/m2
11:14 13.1 °C 11.9 °C 1008.4 hPa West 11.6 km/h 20.9 km/h 93% 0.51 mm 142 W/m2
11:19 13.1 °C 11.9 °C 1008.4 hPa WSW 10.9 km/h 17.7 km/h 93% 0.51 mm 130 W/m2
11:24 13.1 °C 11.9 °C 1008.4 hPa West 8.2 km/h 19.3 km/h 93% 0.51 mm 120 W/m2
11:29 13.1 °C 11.9 °C 1008.4 hPa West 9 km/h 16.1 km/h 93% 0.51 mm 74 W/m2
11:34 13 °C 11.9 °C 1008.4 hPa West 10 km/h 14.5 km/h 93% 0.25 mm 88 W/m2
11:39 12.9 °C 11.8 °C 1008.4 hPa West 8.4 km/h 14.5 km/h 93% 0.25 mm 148 W/m2
11:44 13 °C 11.9 °C 1008.4 hPa West 9.2 km/h 14.5 km/h 93% 0.25 mm 163 W/m2
11:49 12.9 °C 11.8 °C 1008.4 hPa WSW 9.3 km/h 19.3 km/h 93% 0.25 mm 179 W/m2
11:54 12.9 °C 11.8 °C 1008.4 hPa West 10.3 km/h 20.9 km/h 93% 0.25 mm 218 W/m2
11:59 12.9 °C 11.8 °C 1008.4 hPa West 12.2 km/h 24.1 km/h 93% 0.25 mm 151 W/m2
12:04 12.9 °C 11.7 °C 1008.4 hPa WSW 9.7 km/h 20.9 km/h 92.6% 0 mm 207 W/m2
12:09 13 °C 11.8 °C 1008.4 hPa WSW 10.9 km/h 20.9 km/h 92.2% 0 mm 200 W/m2
12:14 13.1 °C 11.9 °C 1008.4 hPa West 13.2 km/h 20.9 km/h 93% 0 mm 264 W/m2
12:19 13.2 °C 11.9 °C 1008.4 hPa WSW 11.3 km/h 19.3 km/h 92.4% 0 mm 269 W/m2
12:24 13.3 °C 11.9 °C 1008.4 hPa WSW 8.7 km/h 17.7 km/h 92% 0 mm 311 W/m2
12:29 13.4 °C 12.2 °C 1008.4 hPa West 10.3 km/h 19.3 km/h 92.4% 0 mm 308 W/m2
12:34 13.4 °C 12.2 °C 1008.4 hPa West 6.1 km/h 19.3 km/h 92% 0 mm 301 W/m2
12:39 13.4 °C 12.2 °C 1008.4 hPa WSW 7.2 km/h 19.3 km/h 92% 0 mm 327 W/m2
12:44 13.5 °C 12.2 °C 1008.4 hPa West 11.3 km/h 22.5 km/h 92% 0 mm 330 W/m2
12:49 13.7 °C 12.4 °C 1008.4 hPa WSW 7.7 km/h 14.5 km/h 92% 0 mm 272 W/m2
12:54 13.8 °C 12.5 °C 1008.4 hPa WSW 10.8 km/h 22.5 km/h 92% 0 mm 287 W/m2
12:59 13.8 °C 12.5 °C 1008.4 hPa WSW 12.2 km/h 22.5 km/h 92% 0 mm 297 W/m2
13:04 13.7 °C 12.4 °C 1008.4 hPa West 13.5 km/h 24.1 km/h 92% 0 mm 315 W/m2
13:09 13.7 °C 12.3 °C 1008.4 hPa WSW 7.7 km/h 24.1 km/h 91% 0 mm 362 W/m2
13:14 13.8 °C 12.4 °C 1008.4 hPa WSW 11.6 km/h 20.9 km/h 91% 0 mm 404 W/m2
13:19 14.1 °C 12.7 °C 1008.4 hPa WSW 7.7 km/h 22.5 km/h 91% 0 mm 392 W/m2
13:24 14.2 °C 12.7 °C 1008.4 hPa West 9 km/h 17.7 km/h 90.8% 0 mm 383 W/m2
13:29 14.3 °C 12.7 °C 1008.4 hPa West 5.8 km/h 16.1 km/h 90.2% 0 mm 385 W/m2
13:34 14.2 °C 12.6 °C 1008.4 hPa WSW 16.7 km/h 27.4 km/h 90% 0 mm 348 W/m2
13:39 14.2 °C 12.6 °C 1008.4 hPa West 10.8 km/h 24.1 km/h 90% 0 mm 353 W/m2
13:44 14.2 °C 12.6 °C 1008.4 hPa West 8.2 km/h 19.3 km/h 89.6% 0 mm 336 W/m2
13:49 14.2 °C 12.3 °C 1008.4 hPa WSW 12.2 km/h 25.7 km/h 89% 0 mm 360 W/m2
13:54 14.3 °C 12.6 °C 1008 hPa WSW 7.1 km/h 19.3 km/h 89% 0 mm 346 W/m2
13:59 14.5 °C 12.7 °C 1008 hPa WSW 12.9 km/h 22.5 km/h 89% 0 mm 346 W/m2
14:04 14.6 °C 12.6 °C 1008 hPa WSW 11.3 km/h 22.5 km/h 88% 0 mm 362 W/m2
14:09 14.7 °C 12.6 °C 1008 hPa West 12.1 km/h 25.7 km/h 87.2% 0 mm 353 W/m2
14:14 14.7 °C 12.6 °C 1008 hPa WSW 12.6 km/h 25.7 km/h 87% 0 mm 357 W/m2
14:19 14.8 °C 12.5 °C 1008.4 hPa WSW 11.6 km/h 22.5 km/h 86.2% 0 mm 385 W/m2
14:24 14.8 °C 12.4 °C 1008 hPa WSW 15.1 km/h 25.7 km/h 85.6% 0 mm 346 W/m2
14:29 14.9 °C 12.4 °C 1008 hPa West 12.9 km/h 25.7 km/h 85% 0 mm 299 W/m2
14:34 14.7 °C 12.2 °C 1008.4 hPa West 11.6 km/h 22.5 km/h 85% 0 mm 264 W/m2
14:39 14.5 °C 12.2 °C 1008.4 hPa West 9.3 km/h 19.3 km/h 86% 0 mm 267 W/m2
14:44 14.3 °C 12.2 °C 1008.4 hPa WNW 10.9 km/h 25.7 km/h 86.8% 0 mm 221 W/m2
14:49 14.1 °C 11.9 °C 1008.4 hPa West 12.9 km/h 24.1 km/h 87% 0.25 mm 169 W/m2
14:54 13.8 °C 11.8 °C 1008.4 hPa WSW 13.2 km/h 24.1 km/h 88% 0.25 mm 165 W/m2
14:59 13.8 °C 11.8 °C 1008.4 hPa West 8.5 km/h 19.3 km/h 88% 0.51 mm 167 W/m2
15:04 13.8 °C 11.9 °C 1008.4 hPa West 11.9 km/h 19.3 km/h 88.8% 0.76 mm 155 W/m2
15:09 13.8 °C 11.9 °C 1008.4 hPa West 9.3 km/h 19.3 km/h 89% 1.02 mm 332 W/m2
15:14 13.9 °C 12.3 °C 1008 hPa West 7.4 km/h 16.1 km/h 89.8% 1.02 mm 394 W/m2
15:19 14.1 °C 12.5 °C 1008 hPa West 10.3 km/h 20.9 km/h 90% 1.02 mm 397 W/m2
15:24 14.2 °C 12.6 °C 1008 hPa West 11.4 km/h 22.5 km/h 90% 1.02 mm 380 W/m2
15:29 14.2 °C 12.6 °C 1008.4 hPa West 13.5 km/h 22.5 km/h 90% 1.02 mm 343 W/m2
15:34 14.2 °C 12.6 °C 1008.4 hPa West 15.1 km/h 27.4 km/h 90% 1.02 mm 274 W/m2
15:39 14.2 °C 12.6 °C 1008.4 hPa West 12.7 km/h 20.9 km/h 90% 1.02 mm 141 W/m2
15:44 13.9 °C 12.3 °C 1008.4 hPa WSW 9.8 km/h 25.7 km/h 90% 1.02 mm 109 W/m2
15:49 13.8 °C 12.2 °C 1008.4 hPa WSW 10 km/h 24.1 km/h 90% 1.27 mm 190 W/m2
15:54 13.9 °C 12.4 °C 1008.4 hPa WSW 9 km/h 19.3 km/h 90.4% 1.02 mm 427 W/m2
15:59 14.2 °C 12.8 °C 1008.4 hPa West 10.3 km/h 20.9 km/h 91% 1.02 mm 432 W/m2
16:04 14.2 °C 12.8 °C 1008.4 hPa West 11.3 km/h 24.1 km/h 91% 0.51 mm 327 W/m2
16:09 14.2 °C 12.8 °C 1008.4 hPa WSW 10.6 km/h 24.1 km/h 91% 0.25 mm 274 W/m2
16:14 14.2 °C 12.7 °C 1008.4 hPa West 12.2 km/h 20.9 km/h 90.4% 0.25 mm 443 W/m2
16:19 14.4 °C 12.8 °C 1008.4 hPa West 14.5 km/h 25.7 km/h 90.5% 0.25 mm 570 W/m2
16:24 14.6 °C 13 °C 1008.4 hPa West 10.3 km/h 24.1 km/h 90% 0.25 mm 570 W/m2
16:29 14.7 °C 13.1 °C 1008.4 hPa West 11.4 km/h 24.1 km/h 90% 0.25 mm 541 W/m2
16:34 14.8 °C 13.2 °C 1008.4 hPa West 11.6 km/h 22.5 km/h 90% 0.25 mm 439 W/m2
16:39 14.8 °C 13.2 °C 1008.4 hPa West 9.5 km/h 25.7 km/h 89.8% 0.25 mm 373 W/m2
16:44 14.9 °C 13.1 °C 1008.4 hPa West 13.2 km/h 24.1 km/h 89% 0.25 mm 341 W/m2
16:49 14.9 °C 13.1 °C 1008.4 hPa West 17.1 km/h 25.7 km/h 89% 0.25 mm 253 W/m2
16:54 14.8 °C 12.8 °C 1008.7 hPa West 11.6 km/h 29 km/h 88% 0 mm 214 W/m2
16:59 14.6 °C 12.5 °C 1008.7 hPa WNW 14.2 km/h 29 km/h 87% 0 mm 237 W/m2
17:04 14.4 °C 12.1 °C 1008.7 hPa West 15.4 km/h 24.1 km/h 86% 0 mm 206 W/m2
17:09 14.3 °C 11.8 °C 1008.7 hPa West 9.3 km/h 27.4 km/h 85.2% 0 mm 178 W/m2
17:14 14.3 °C 11.8 °C 1008.7 hPa West 12.4 km/h 24.1 km/h 85% 0 mm 197 W/m2
17:19 14.2 °C 11.7 °C 1008.7 hPa West 10.6 km/h 22.5 km/h 85% 0 mm 214 W/m2
17:24 14.2 °C 11.7 °C 1009 hPa West 9.7 km/h 22.5 km/h 85% 0 mm 183 W/m2
17:29 14.2 °C 11.7 °C 1009 hPa WNW 7.9 km/h 20.9 km/h 85% 0 mm 178 W/m2
17:34 14.1 °C 11.6 °C 1009 hPa West 11.3 km/h 20.9 km/h 85% 0 mm 142 W/m2
17:39 14.1 °C 11.6 °C 1009 hPa West 10.6 km/h 19.3 km/h 85% 0 mm 137 W/m2
17:44 14.1 °C 11.6 °C 1009 hPa West 10.9 km/h 20.9 km/h 85% 0 mm 176 W/m2
17:49 14.1 °C 11.6 °C 1009 hPa West 8 km/h 17.7 km/h 85% 0 mm 167 W/m2
17:54 14.1 °C 11.6 °C 1009 hPa West 14.2 km/h 20.9 km/h 85% 0 mm 176 W/m2
17:59 14.2 °C 11.7 °C 1009 hPa West 10.6 km/h 22.5 km/h 85% 0 mm 195 W/m2
18:04 14.2 °C 11.7 °C 1009 hPa West 13.2 km/h 22.5 km/h 85% 0 mm 171 W/m2
18:09 14.2 °C 11.7 °C 1009 hPa West 9.2 km/h 22.5 km/h 85% 0 mm 130 W/m2
18:14 14.2 °C 11.7 °C 1009 hPa West 10.5 km/h 19.3 km/h 85% 0 mm 127 W/m2
18:19 14.2 °C 11.7 °C 1009 hPa West 10.1 km/h 19.3 km/h 85% 0 mm 195 W/m2
18:24 14.3 °C 11.7 °C 1009 hPa West 12.6 km/h 20.9 km/h 84.8% 0 mm 185 W/m2
18:29 14.3 °C 11.7 °C 1009 hPa West 11.1 km/h 25.7 km/h 84.6% 0 mm 135 W/m2
18:34 14.3 °C 11.7 °C 1009 hPa WSW 14 km/h 24.1 km/h 84.8% 0 mm 178 W/m2
18:39 14.3 °C 11.8 °C 1009.4 hPa West 10.3 km/h 20.9 km/h 85% 0 mm 95 W/m2
18:44 14.2 °C 11.7 °C 1009.4 hPa West 15.4 km/h 30.6 km/h 85% 0 mm 100 W/m2
18:49 14.2 °C 11.6 °C 1009.4 hPa West 8.7 km/h 20.9 km/h 84.2% 0 mm 69 W/m2
18:54 14.1 °C 11.4 °C 1009.4 hPa West 10.8 km/h 25.7 km/h 84% 0 mm 74 W/m2
18:59 13.9 °C 11.2 °C 1009.7 hPa West 12.9 km/h 24.1 km/h 83.4% 0 mm 54 W/m2
19:04 13.9 °C 11.1 °C 1009.7 hPa West 15.8 km/h 22.5 km/h 83% 0 mm 42 W/m2
19:09 13.8 °C 11 °C 1009.7 hPa WNW 9 km/h 22.5 km/h 83% 0 mm 35 W/m2
19:14 13.8 °C 11 °C 1009.7 hPa West 10.6 km/h 17.7 km/h 83% 0 mm 30 W/m2
19:19 13.7 °C 10.9 °C 1009.7 hPa West 10.6 km/h 19.3 km/h 83% 0 mm 25 W/m2
19:24 13.7 °C 10.9 °C 1010 hPa West 9.7 km/h 20.9 km/h 83% 0 mm 25 W/m2
19:29 13.7 °C 10.9 °C 1010 hPa West 6.4 km/h 20.9 km/h 83% 0 mm 21 W/m2
19:34 13.7 °C 10.8 °C 1010 hPa WSW 12.2 km/h 17.7 km/h 83% 0 mm 16 W/m2
19:39 13.6 °C 10.8 °C 1010 hPa West 9 km/h 17.7 km/h 83% 0 mm 16 W/m2
19:44 13.6 °C 10.8 °C 1010 hPa West 10.3 km/h 19.3 km/h 83% 0 mm 14 W/m2
19:49 13.6 °C 10.8 °C 1010 hPa West 9.8 km/h 19.3 km/h 83.2% 0 mm 11 W/m2
19:54 13.5 °C 10.8 °C 1010 hPa West 5.6 km/h 12.9 km/h 84% 0 mm 12 W/m2
19:59 13.5 °C 10.9 °C 1010 hPa West 5.5 km/h 12.9 km/h 84.4% 0 mm 12 W/m2
20:04 13.5 °C 11 °C 1010 hPa West 7.7 km/h 22.5 km/h 85% 0 mm 12 W/m2
20:09 13.4 °C 10.9 °C 1010 hPa WSW 7.6 km/h 22.5 km/h 85% 0 mm 12 W/m2
20:14 13.4 °C 11.1 °C 1010 hPa West 7.1 km/h 16.1 km/h 85.8% 0 mm 12 W/m2
20:19 13.3 °C 11 °C 1010.4 hPa WSW 9.5 km/h 16.1 km/h 86% 0 mm 11 W/m2
20:24 13.3 °C 11.1 °C 1010.4 hPa West 8.2 km/h 22.5 km/h 86.4% 0 mm 9 W/m2
20:29 13.2 °C 11.1 °C 1010.4 hPa West 10.3 km/h 14.5 km/h 87% 0 mm 11 W/m2
20:34 13.2 °C 11.1 °C 1010.4 hPa West 7.6 km/h 14.5 km/h 87% 0 mm 7 W/m2
20:39 13.2 °C 11.1 °C 1010.4 hPa West 6.6 km/h 14.5 km/h 87% 0 mm 7 W/m2
20:44 13.2 °C 11.1 °C 1010.4 hPa West 7.4 km/h 12.9 km/h 87% 0 mm 7 W/m2
20:49 13.2 °C 11.2 °C 1010.4 hPa West 7.4 km/h 16.1 km/h 87.6% 0 mm 0 W/m2
20:54 13.1 °C 11.2 °C 1010.7 hPa West 7.7 km/h 12.9 km/h 88% 0 mm 0 W/m2
20:59 13.1 °C 11.2 °C 1010.7 hPa West 9.2 km/h 17.7 km/h 88% 0 mm 0 W/m2
21:04 13.1 °C 11.2 °C 1010.7 hPa West 8.4 km/h 16.1 km/h 88% 0 mm 0 W/m2
21:09 12.9 °C 11.1 °C 1010.7 hPa West 6.8 km/h 16.1 km/h 88% 0 mm 0 W/m2
21:14 12.9 °C 11 °C 1010.7 hPa West 10.6 km/h 17.7 km/h 88% 0 mm 0 W/m2
21:19 12.8 °C 10.9 °C 1010.7 hPa West 8.7 km/h 25.7 km/h 88.2% 0 mm 0 W/m2
21:24 12.8 °C 10.9 °C 1010.7 hPa West 7.7 km/h 14.5 km/h 88.4% 0 mm 0 W/m2
21:29 12.7 °C 10.9 °C 1010.7 hPa West 12.2 km/h 22.5 km/h 89% 0 mm 0 W/m2
21:34 12.7 °C 10.9 °C 1011.1 hPa West 5 km/h 17.7 km/h 89% 0 mm 0 W/m2
21:39 12.6 °C 10.8 °C 1011.1 hPa West 12.2 km/h 19.3 km/h 89% 0 mm 0 W/m2
21:44 12.6 °C 10.8 °C 1011.1 hPa West 9.3 km/h 19.3 km/h 89% 0 mm 0 W/m2
21:49 12.6 °C 10.8 °C 1011.1 hPa West 10.1 km/h 19.3 km/h 89% 0 mm 0 W/m2
21:54 12.6 °C 10.8 °C 1011.1 hPa West 8.9 km/h 19.3 km/h 89% 0 mm 0 W/m2
21:59 12.6 °C 10.9 °C 1011.1 hPa West 7.9 km/h 16.1 km/h 89.4% 0 mm 0 W/m2
22:04 12.6 °C 11 °C 1011.1 hPa West 10.6 km/h 17.7 km/h 90% 0 mm 0 W/m2
22:09 12.6 °C 11 °C 1011.1 hPa West 9.7 km/h 19.3 km/h 90% 0 mm 0 W/m2
22:14 12.6 °C 11 °C 1011.1 hPa West 9.7 km/h 16.1 km/h 90% 0 mm 0 W/m2
22:19 12.6 °C 11 °C 1011.1 hPa West 10.5 km/h 19.3 km/h 90% 0 mm 0 W/m2
22:24 12.6 °C 11 °C 1011.1 hPa WNW 10.6 km/h 19.3 km/h 90% 0 mm 0 W/m2
22:29 12.6 °C 11 °C 1011.1 hPa WNW 9.7 km/h 17.7 km/h 90% 0 mm 0 W/m2
22:34 12.6 °C 11 °C 1011.1 hPa West 9.8 km/h 19.3 km/h 90% 0 mm 0 W/m2
22:39 12.6 °C 11 °C 1011.4 hPa West 12.2 km/h 25.7 km/h 90% 0 mm 0 W/m2
22:44 12.6 °C 11 °C 1011.4 hPa West 9.8 km/h 22.5 km/h 90% 0 mm 0 W/m2
22:49 12.7 °C 11.1 °C 1011.4 hPa WNW 8.5 km/h 19.3 km/h 90% 0 mm 0 W/m2
22:54 12.7 °C 11.1 °C 1011.4 hPa WSW 11.4 km/h 22.5 km/h 90% 0 mm 0 W/m2
22:59 12.7 °C 11.1 °C 1011.4 hPa West 9.7 km/h 20.9 km/h 90% 0 mm 0 W/m2
23:04 12.7 °C 11.1 °C 1011.4 hPa West 7.4 km/h 17.7 km/h 90% 0 mm 0 W/m2
23:09 12.7 °C 11.1 °C 1011.4 hPa West 10.3 km/h 19.3 km/h 90% 0 mm 0 W/m2
23:14 12.6 °C 11 °C 1011.4 hPa West 9.3 km/h 24.1 km/h 90% 0 mm 0 W/m2
23:19 12.6 °C 11 °C 1011.1 hPa WSW 10.3 km/h 17.7 km/h 90% 0 mm 0 W/m2
23:24 12.6 °C 11 °C 1011.1 hPa West 10.6 km/h 17.7 km/h 90% 0 mm 0 W/m2
23:29 12.6 °C 10.9 °C 1011.1 hPa West 8.2 km/h 16.1 km/h 90% 0 mm 0 W/m2
23:34 12.4 °C 10.8 °C 1011.1 hPa West 6.1 km/h 14.5 km/h 90% 0 mm 0 W/m2
23:39 12.4 °C 10.8 °C 1011.1 hPa West 6.6 km/h 14.5 km/h 90% 0 mm 0 W/m2
23:44 12.3 °C 10.8 °C 1011.4 hPa West 5.1 km/h 12.9 km/h 90.6% 0 mm 0 W/m2
23:49 12.3 °C 10.9 °C 1011.4 hPa WSW 6.8 km/h 16.1 km/h 91% 0 mm 0 W/m2
23:54 12.3 °C 10.9 °C 1011.4 hPa WSW 6.9 km/h 16.1 km/h 91% 0 mm 0 W/m2
23:59 12.3 °C 10.9 °C 1011.4 hPa West 10.3 km/h 22.5 km/h 91% 0 mm 0 W/m2
Bath Spa Weather
Compliments of Weather Underground - 2 mb